Location: Unspecified
(0.0000°N, 0.0000°E)
Time: 18:02:44
(UTC+00:00)

CUTE-I - Pass Details

Date: 11 December 2017
Orbit: 810 x 826 km, 98.7° (Epoch: 16 January)

Event Time Altitude Azimuth Distance (km) Brightness Sun altitude
Rises 19:12:23 0° 205° (SSW) 3,358 ? -18.1°
Reaches altitude 10° 19:16:18 10° 234° (SW) 2,424 ? -19.0°
Maximum altitude 19:18:22 12° 257° (WSW) 2,266 ? -19.4°
Drops below altitude 10° 19:20:26 10° 280° (W) 2,421 ? -19.9°
Sets 19:24:22 0° 309° (NW) 3,351 ? -20.8°
